Powrót do katalogu

STARLINK-31902

AktywnyŁącznośćVLEO
NORAD 59666·PAYLOAD·🇺🇸 United States

Wystrzelony May 6, 2024 z Cape Canaveral Space Force Station

Loading…

Następne Przeloty (najbliższe 24 godziny)

TLE

ŚwieżeSource: CelesTrak SupGP

Epoka: Sep 15, 2026, 02:27 UTC

1 59666C 24084N   26258.10256944 -.00026349  00000+0 -95432-3 0  2583
2 59666  43.0028  52.3467 0001499 265.5851 266.6306 15.27592347    18

Śledź STARLINK-31902 w czasie rzeczywistym z AllMySat

Download on the App Store